Find BB 2

NORAD ID: 56170 Int'l Des: 2023-050 Owner: SDA Country: US operational
LEOCIRCULARPOLAR

实时位置

正在加载3D地球...

关于 BB 2

正在加载描述...

即将过境

Passes for default location (London). Set your location on the main map for personalized predictions.

高度历史

Loading altitude history...

两行轨道根数

1 56170U 23050J 26106.23017527 .00000135 00000-0 97784-4 0 9999
2 56170 81.0010 139.7637 0011343 106.0466 254.1944 13.91485708152982
Epoch: Apr 16, 2026 • Age: 8 hours

当前状态

高度 921.3 km
速度 7.40 km/s
星下点 30.71°N, 87.7°W
发射日期 Apr 2, 2023
运行时间 3 years
类型 other

技术详情

分类 Payload
质量 800.00 kg
干质量 800.00 kg
总质量 800.00 kg
长度 0.30 m
直径 3.00 m
跨度 9.00 m
形状 Box + pan
制造商 SPX/LEIDOS
平台类型 Starshield
阶段状态 In Orbit
所有者/国家 SDA/US

Most Searched